Location: Artiguedieu
(43.5000°N, 0.5454°E)
Time: 21:21:16
(UTC+00:00)

Vanguard 1 - Pass Details

Date: 06 August 2021
Orbit: 652 x 3831 km, 34.3° (Epoch: 19 September)

Event Time Altitude Azimuth Distance (km) Brightness Sun altitude
Rises 07:56:12 0° 209° (SSW) 3,153 12.5 31.6°
Reaches altitude 10° 08:00:21 10° 174° (S) 2,058 12.0 32.4°
Maximum altitude 08:01:47 11° 155° (SSE) 1,955 12.2 32.6°
Drops below altitude 10° 08:03:13 10° 136° (SE) 2,054 12.6 32.9°
Sets 08:07:20 0° 101° (E) 3,135 13.7 33.6°
